Regional Weather Roundup
Issued by NWS

Home | Current Version | Previous Version | Graphics & Text | Print | Product List | Glossary On
Versions: 1 2 3 4 5 6 7 8 9 10 11 12 13 14 15 16 17 18 19 20 21 22 23 24 25 26 27 28 29 30 31 32 33 34 35 36 37 38 39 40 41 42 43 44 45 46 47 48 49 50
000
ASUS45 KCYS 051810
RWRWY

WYOMING REGIONAL WEATHER ROUNDUP
NATIONAL WEATHER SERVICE CHEYENNE WY
1200 PM MDT SUN JUL 05 2015

NOTE:  "FAIR" INDICATES FEW OR NO CLOUDS BELOW 12,000 FEET
WITH NO SIGNIFICANT WEATHER AND/OR OBSTRUCTIONS TO VISIBILITY.

WYZ001-051900-
YELLOWSTONE NATIONAL PARK

CITY           SKY/WX    TMP DP  RH WIND       PRES   REMARKS
LK YELLOWSTONE   N/A     60  47  61 VRB5      30.25R
6HR MIN TEMP:  46; 6HR MAX TEMP:  63;

W YELLOWSTONE  NOT AVBL

$$
WYZ002>013-054>058-071-098>099-051900-
NORTHERN WYOMING

CITY           SKY/WX    TMP DP  RH WIND       PRES   REMARKS
JACKSON        CLOUDY    64  57  77 S10       30.16R
CODY           CLOUDY    61  50  67 N17       30.11R
GREYBULL       FAIR      69  53  56 NW28G39   29.98R
6HR MIN TEMP:  68; 6HR MAX TEMP:  73;

WORLAND        FAIR      69  54  58 NW10      30.03R HAZE
6HR MIN TEMP:  64; 6HR MAX TEMP:  73;

SHERIDAN       CLOUDY    61  54  77 NW18      30.08R
6HR MIN TEMP:  60; 6HR MAX TEMP:  67;

BUFFALO        CLOUDY    59  53  80 NW22G30   30.11R
6HR MIN TEMP:  58; 6HR MAX TEMP:  70;

GILLETTE       CLOUDY    64  58  80 NW14      30.03R
6HR MIN TEMP:  64; 6HR MAX TEMP:  76;

HULETT         FAIR      72  61  68 NE13G18   29.99R
NEWCASTLE      FAIR      79  61  53 W10       29.90R

$$
WYZ014>020-022>026-101>103-051900-
CENTRAL WYOMING

CITY           SKY/WX    TMP DP  RH WIND       PRES   REMARKS
BIG PINEY      LGT RAIN  60  56  86 NW12      30.23R
6HR MIN TEMP:  57; 6HR MAX TEMP:  67; 6HR PCP: TRACE;

PINEDALE       RAIN      59  54  82 W10       30.23R
DUBOIS         DRIZZLE   63  48  59 W13       30.17R
LANDER         LGT RAIN  72  51  47 NE3       30.06R
6HR MIN TEMP:  62; 6HR MAX TEMP:  77; 6HR PCP: TRACE;

RIVERTON       CLOUDY    70  53  54 NE13      30.06R
6HR MIN TEMP:  68; 6HR MAX TEMP:  75;

CASPER         FAIR      73  55  53 N21G31    30.04R
6HR MIN TEMP:  72; 6HR MAX TEMP:  83;

DOUGLAS        FAIR      76  58  53 N22G30    29.98R
6HR MIN TEMP:  58; 6HR MAX TEMP:  88;


$$
WYZ021-027>030-104>119-051900-
SOUTHERN WYOMING

CITY           SKY/WX    TMP DP  RH WIND       PRES   REMARKS
EVANSTON       RAIN      57  55  93 SW8       30.24S FOG
6HR MIN TEMP:  57; 6HR MAX TEMP:  64; 6HR PCP:  0.26;

KEMMERER       CLOUDY    59  55  88 NW10      30.24S
FORT BRIDGER   RAIN      61  55  82 W12G23    30.26R
ROCK SPRINGS   CLOUDY    67  53  61 W8        30.19R
6HR MIN TEMP:  66; 6HR MAX TEMP:  70; 6HR PCP: TRACE;

DIXON          CLOUDY    70  56  60 W6        30.22S
RAWLINS        PTSUNNY   69  52  54 SW18G28   30.17R
6HR MIN TEMP:  66; 6HR MAX TEMP:  73;

SARATOGA       CLOUDY    72  50  46 W15G22    30.19S
LARAMIE        FAIR      79  48  33 VRB5      30.12F
6HR MIN TEMP:  55; 6HR MAX TEMP:  81;

CHEYENNE       FAIR      89  49  25 SW5       30.03S
6HR MIN TEMP:  64; 6HR MAX TEMP:  89;

TORRINGTON     FAIR      90  54  29 NW14      29.87R
6HR MIN TEMP:  61; 6HR MAX TEMP:  91;

PINE BLUFFS    FAIR      88  50  27 N7        29.97S

$$



USA.gov is the U.S. government's official web portal to all federal, state and local government web resources and services.